"TOA5","AWS1","CR1000","7964","CR1000.Std.14","CPU:AWS1_114.CR1","64363","TBL110"
"TIMESTAMP","RECORD","Wind_spd_WVc(1)","Wind_spd_WVc(2)","Air_Temp_Avg","Humidity_Avg","SW_upper_Wm2_Avg","Rain_Tot","Press_Avg","Issui_Tot","Depth_cm","SR50A_Raw","Quality","Ground_Temp_Avg(1)","Ground_Temp_Avg(2)","SW_lower_Wm2_Avg","Albedo_Avg","SWC_per(1)","SWC_per(2)","Period(1)","Period(2)"
"TS","RN","","","","","","","","","","","","","","","","","","",""
"","","WVc","WVc","Avg","Avg","Avg","Tot","Avg","Tot","Smp","Smp","Smp","Avg","Avg","Avg","Avg","Smp","Smp","Smp","Smp"
"2017-10-01 00:00:00",308077,0.673,191.2,5.004,66.03,0,0,873.8173,0,1.07,3.141,206,13.76,14.95,0,0,50.22,57.33,33.35,35.06
"2017-10-01 00:10:00",308078,0.634,181.3,4.949,67.02,0,0,873.8198,0,1.627,3.135,209,13.74,14.92,0,0,50.17,57.33,33.34,35.06
"2017-10-01 00:20:00",308079,0.579,188.5,5.15,66.91,0,0,873.8221,0,1.83,3.133,213,13.67,14.9,0.1213443,0,50.17,57.33,33.34,35.06
"2017-10-01 00:30:00",308080,0.725,189,4.981,67.94,0,0,873.8275,0,2.08,3.131,224,13.66,14.89,0,0,50.22,57.33,33.35,35.06
"2017-10-01 00:40:00",308081,0.615,185.8,5.047,68.05,0,0,873.8303,0,2.029,3.131,207,13.58,14.89,0.01896037,0,50.22,57.33,33.35,35.06
"2017-10-01 00:50:00",308082,0.629,184.6,4.972,68.39,0,0,873.8333,0,1.802,3.133,211,13.59,14.89,0.003792114,0,50.22,57.33,33.35,35.06
"2017-10-01 01:00:00",308083,0.585,184.6,5.07,70.04,0,0,873.832,0,1.875,3.133,204,13.59,14.9,0.1061793,0,50.22,57.33,33.35,35.06
"2017-10-01 01:10:00",308084,0.642,189.2,4.95,69.32,0,0,873.8295,0,2.48,3.127,212,13.62,14.9,0,0,50.17,57.33,33.34,35.06
"2017-10-01 01:20:00",308085,0.643,186.4,4.971,71.14,0,0,873.8223,0,2.578,3.127,221,13.53,14.9,0.08342686,0,50.22,57.27,33.35,35.05
"2017-10-01 01:30:00",308086,0.672,185.3,4.888,71.45,0,0,873.797,0,2.226,3.13,220,13.51,14.9,0,0,50.17,57.27,33.34,35.05
"2017-10-01 01:40:00",308087,0.694,181.6,4.838,72.77,0,0,873.7207,0,2.123,3.132,216,13.45,14.86,0.00379213,0,50.22,57.27,33.35,35.05
"2017-10-01 01:50:00",308088,0.668,185.2,4.872,71.37,0,0,873.5794,0,2.001,3.132,211,13.42,14.87,0.09101113,0,50.17,57.27,33.34,35.05
"2017-10-01 02:00:00",308089,0.646,184.7,4.955,69.84,0,0,873.581,0,2.076,3.131,220,13.41,14.86,0.07205047,0,50.22,57.27,33.35,35.05
"2017-10-01 02:10:00",308090,0.695,188.5,4.871,71.24,0,0,873.5662,0,2.631,3.126,212,13.42,14.85,0,0,50.22,57.27,33.35,35.05
"2017-10-01 02:20:00",308091,0.742,189.7,4.876,69.07,0,0,873.5781,0,2.025,3.132,218,13.4,14.84,0.00379213,0,50.17,57.27,33.34,35.05
"2017-10-01 02:30:00",308092,0.481,188.5,5.021,68.22,0,0,873.7021,0,1.673,3.135,210,13.37,14.82,0.1327246,0,50.17,57.27,33.34,35.05
"2017-10-01 02:40:00",308093,0.741,185.7,4.875,70.78,0,0,873.8576,0,2.025,3.132,213,13.33,14.81,0,0,50.17,57.27,33.34,35.05
"2017-10-01 02:50:00",308094,0.576,186.9,4.952,68.44,0,0,874.0095,0,2.407,3.127,223,13.34,14.81,0.07963474,0,50.17,57.33,33.34,35.06
"2017-10-01 03:00:00",308095,0.61,186.1,5.011,67.78,0,0,874.2238,0,2.076,3.131,204,13.31,14.81,0.1441009,0,50.17,57.33,33.34,35.06
"2017-10-01 03:10:00",308096,0.623,187.7,5.069,66.22,0,0,874.3632,0,2.305,3.128,209,13.25,14.81,0.03033704,0,50.17,57.27,33.34,35.05
"2017-10-01 03:20:00",308097,0.551,188.4,5.192,65.5,0,0,874.5592,0,2.184,3.128,205,13.25,14.81,0.09480325,0,50.17,57.33,33.34,35.06
"2017-10-01 03:30:00",308098,0.427,186,5.079,66.42,0,0,874.5917,0,2.33,3.128,219,13.23,14.85,0,0,50.22,57.27,33.35,35.05
"2017-10-01 03:40:00",308099,0.196,154.8,5.151,64.42,0,0,874.6168,0,2.39,3.124,230,13.23,14.87,0.1820223,0,50.22,57.27,33.35,35.05
"2017-10-01 03:50:00",308100,0.232,59.49,6.658,52.06,0.121922,0,874.7443,0,1.292,3.117,195,13.16,14.85,1.971908,1.543,50.22,57.27,33.35,35.05
"2017-10-01 04:00:00",308101,0.385,287.5,9.56,34.6,0.3382353,0,874.8297,0,1.979,3.105,216,13.16,14.84,3.246063,2.766,50.17,57.27,33.34,35.05
"2017-10-01 04:10:00",308102,0.468,356.3,9.73,33.51,0,0,874.8314,0,2.282,3.103,220,13.16,14.81,1.224856,0,50.17,57.27,33.34,35.05
"2017-10-01 04:20:00",308103,0.543,18.34,9.75,31.92,0,0,874.8308,0,1.388,3.111,202,13.14,14.79,0.4057332,0,50.22,57.22,33.35,35.03
"2017-10-01 04:30:00",308104,0.516,39.99,9.68,31.05,0,0,874.8264,0,2.11,3.106,231,13.1,14.75,0.07962101,0,50.17,57.27,33.34,35.05
"2017-10-01 04:40:00",308105,0.283,83.1,7.749,45.01,0,0,874.8286,0,1.124,3.137,265,13.06,14.73,0,0,50.17,57.27,33.34,35.05
"2017-10-01 04:50:00",308106,0.549,179.7,5.05,59.15,0,0,874.8328,0,1.371,3.138,214,12.94,14.73,0,0,50.17,57.27,33.34,35.05
"2017-10-01 05:00:00",308107,0.549,175.7,4.727,61.07,0,0,874.8644,0,1.392,3.14,235,12.98,14.65,0,0,50.17,57.22,33.34,35.03
"2017-10-01 05:10:00",308108,0.8,187.9,4.348,62.32,0,0,874.8959,0,1.567,3.139,209,12.98,14.63,0,0,50.22,57.22,33.35,35.03
"2017-10-01 05:20:00",308109,0.757,189.7,4.593,59.54,0,0,874.8454,0,1.673,3.136,221,12.96,14.63,0,0,50.22,57.22,33.35,35.03
"2017-10-01 05:30:00",308110,0.797,190.3,4.762,58.21,0,0,874.8286,0,1.718,3.136,206,12.9,14.65,0.01516347,0,50.17,57.22,33.34,35.03
"2017-10-01 05:40:00",308111,0.704,181.2,4.735,58.84,0,0,874.8307,0,2.147,3.131,222,12.9,14.72,0.1175201,0,50.17,57.22,33.34,35.03
"2017-10-01 05:50:00",308112,0.788,187.2,4.801,58.11,0.2477147,0,874.799,0,1.859,3.134,217,12.87,14.71,0.4663053,0.29,50.17,57.27,33.34,35.05
"2017-10-01 06:00:00",308113,0.649,184.2,5.103,55.43,3.306918,0,874.8307,0,1.964,3.129,213,12.84,14.62,1.038819,0.334,50.17,57.22,33.34,35.03
"2017-10-01 06:10:00",308114,0.447,183.6,5.557,53.42,6.779302,0,874.8517,0,1.934,3.128,213,12.85,14.59,1.425597,0.216,50.17,57.27,33.34,35.05
"2017-10-01 06:20:00",308115,0.583,180.2,5.76,53.42,10.60617,0,874.8307,0,1.957,3.126,205,12.87,14.61,1.702496,0.162,50.17,57.22,33.34,35.03
"2017-10-01 06:30:00",308116,0.391,176.1,6.238,51.53,21.73105,0,874.8307,0,1.97,3.124,210,12.87,14.61,4.728227,0.205,50.22,57.22,33.35,35.03
"2017-10-01 06:40:00",308117,0.302,182.2,6.928,53.7,30.10642,0,874.8307,0,1.621,3.12,214,12.86,14.6,8.648585,0.288,50.17,57.22,33.34,35.03
"2017-10-01 06:50:00",308118,0.108,179.2,8.43,53.54,32.81467,0,874.9002,0,1.783,3.112,227,12.85,14.59,10.34305,0.315,50.17,57.27,33.34,35.05
"2017-10-01 07:00:00",308119,0.099,178.8,9.26,58.05,35.63226,0,875.0877,0,1.03,3.119,216,12.8,14.57,10.39181,0.292,50.17,57.22,33.34,35.03
"2017-10-01 07:10:00",308120,0.218,180,8.69,63.24,72.86552,0,875.0834,0,1.53,3.112,214,12.73,14.56,11.41874,0.176,50.17,57.22,33.34,35.03
"2017-10-01 07:20:00",308121,0.073,132.2,9.84,60.75,61.89374,0,874.9844,0,1.324,3.11,208,12.69,14.53,11.824,0.213,50.17,57.22,33.34,35.03
"2017-10-01 07:30:00",308122,0.304,26.16,10.55,54.88,99.98241,0,874.9676,0,1.867,3.099,211,12.66,14.49,15.38718,0.172,50.17,57.22,33.34,35.03
"2017-10-01 07:40:00",308123,0.276,52.15,11.3,48.11,119.4354,0,874.884,0,1.519,3.101,195,12.65,14.47,14.97007,0.172,50.17,57.22,33.34,35.03
"2017-10-01 07:50:00",308124,0.158,347.8,11.6,46.92,154.1633,0,874.816,0,1.614,3.097,210,12.65,14.51,16.78206,0.186,50.28,57.22,33.37,35.03
"2017-10-01 08:00:00",308125,0.382,320.3,11.96,42.85,75.03908,0,874.8057,0,1.644,3.096,210,12.68,14.54,20.51981,0.303,50.22,57.22,33.35,35.03
"2017-10-01 08:10:00",308126,0.223,89.1,12.04,49.5,50.43015,0,874.6846,0,1.96,3.093,224,12.66,14.51,18.18433,0.362,50.17,57.22,33.34,35.03
"2017-10-01 08:20:00",308127,0.353,138,12.39,55.23,53.96587,0,874.647,0,1.825,3.091,216,12.64,14.46,20.19859,0.375,50.22,57.22,33.35,35.03
"2017-10-01 08:30:00",308128,0.192,94.7,12.84,51.38,82.63311,0,874.7366,0,1.906,3.088,257,12.59,14.43,20.28714,0.265,50.17,57.22,33.34,35.03
"2017-10-01 08:40:00",308129,0.256,0.812,12.9,51.29,59.15256,0,874.9049,0,1.922,3.09,220,12.57,14.42,21.45704,0.364,50.17,57.22,33.34,35.03
"2017-10-01 08:50:00",308130,0.362,4.885,12.88,52.33,62.32706,0,875.0775,0,3.503,3.072,330,12.56,14.41,23.07096,0.37,50.22,57.22,33.35,35.03
"2017-10-01 09:00:00",308131,0.394,47.88,13.37,52.17,73.2568,0,875.1998,0,2.241,3.082,212,12.55,14.41,23.65439,0.332,50.22,57.22,33.35,35.03
"2017-10-01 09:10:00",308132,0.195,38.82,13.63,53.15,65.95024,0,875.0291,0,2.453,3.079,322,12.56,14.41,23.70361,0.364,50.22,57.22,33.35,35.03
"2017-10-01 09:20:00",308133,0.466,356.3,13.71,52.88,155.262,0,874.9891,0,2.005,3.085,203,12.57,14.41,24.07498,0.272,50.17,57.16,33.34,35.02
"2017-10-01 09:30:00",308134,0.521,335.8,13.81,51.51,212.5735,0,874.9891,0,0.132,3.1,212,12.57,14.39,25.02236,0.14,50.17,57.22,33.34,35.03
"2017-10-01 09:40:00",308135,0.549,25.47,14.41,50.77,223.37,0,874.968,0,0.649,3.091,226,12.57,14.35,27.32641,0.145,50.17,57.16,33.34,35.02
"2017-10-01 09:50:00",308136,0.51,322.6,14.73,52.63,129.4676,0,874.7448,0,1.517,3.083,214,12.58,14.32,30.71805,0.329,50.17,57.16,33.34,35.02
"2017-10-01 10:00:00",308137,0.424,347.5,14.8,53.33,140.5706,0,874.6506,0,1.579,3.081,224,12.55,14.32,37.06932,0.269,50.17,57.16,33.34,35.02
"2017-10-01 10:10:00",308138,0.437,358.5,15.07,53.12,124.7159,0,874.4857,0,2.496,3.07,203,12.54,14.32,37.69081,0.304,50.17,57.16,33.34,35.02
"2017-10-01 10:20:00",308139,0.321,76.85,15.44,50.93,161.9491,0,874.296,0,0.421,3.09,235,12.56,14.32,45.50804,0.283,50.17,57.16,33.34,35.02
"2017-10-01 10:30:00",308140,0.439,8.8,15.63,47.8,607.3225,0,874.0203,0,1.476,3.078,220,12.56,14.3,52.62964,0.101,50.11,57.16,33.33,35.02
"2017-10-01 10:40:00",308141,0.334,312.5,15.74,48.84,722.2224,0,873.8423,0,1.194,3.079,214,12.55,14.24,61.77981,0.086,50.17,57.16,33.34,35.02
"2017-10-01 10:50:00",308142,0.423,5.996,15.99,49.84,649.3295,0,873.6256,0,0.533,3.086,220,12.53,14.21,61.20626,0.094,50.17,57.16,33.34,35.02
"2017-10-01 11:00:00",308143,0.503,22.74,15.92,51.39,573.1785,0,873.3919,0,0.976,3.082,244,12.63,14.16,59.83075,0.105,50.17,57.16,33.34,35.02
"2017-10-01 11:10:00",308144,0.481,33.4,16.07,55.44,702.6406,0,873.442,0,-1.839,3.108,205,12.62,14.16,75.12984,0.107,50.11,57.16,33.33,35.02
"2017-10-01 11:20:00",308145,0.517,8.92,16.21,57.92,892.4215,0,873.3935,0,0.758,3.083,252,12.58,14.17,100.0558,0.112,50.06,57.16,33.31,35.02
"2017-10-01 11:30:00",308146,0.413,325.7,16.19,59.22,863.1906,0,873.4587,0,1.827,3.071,233,12.64,14.17,109.0412,0.126,50.17,57.16,33.34,35.02
"2017-10-01 11:40:00",308147,0.566,31.06,16.29,60.56,630.1718,0,873.444,0,2.396,3.068,307,12.63,14.16,85.20918,0.135,50.17,57.16,33.34,35.02
"2017-10-01 11:50:00",308148,0.388,326.3,15.82,63.51,615.9213,0,873.3788,0,1.787,3.073,358,12.67,14.11,90.99002,0.147,50.11,57.16,33.33,35.02
"2017-10-01 12:00:00",308149,0.363,315.6,16,64.04,621.5082,0,873.2966,0,0.813,3.082,208,12.66,14.06,94.78964,0.152,50.17,57.16,33.34,35.02
"2017-10-01 12:10:00",308150,0.507,11.54,16.33,63.82,615.0687,0,873.1282,0,0.512,3.084,244,12.71,14.06,95.92612,0.156,50.11,57.1,33.33,35.01
"2017-10-01 12:20:00",308151,0.501,6.214,16.42,64.85,635.5385,0,873.1155,0,1.914,3.069,250,12.75,14.06,100.8698,0.158,50.17,57.1,33.34,35.01
"2017-10-01 12:30:00",308152,0.342,0.933,16.43,65.36,477.3552,0,872.886,0,1.154,3.078,202,12.76,14.06,71.41991,0.146,50.11,57.1,33.33,35.01
"2017-10-01 12:40:00",308153,0.312,324.5,15.92,68.34,407.4711,0,872.9344,0,0.633,3.087,210,12.84,14.06,61.74093,0.148,50.11,57.1,33.33,35.01
"2017-10-01 12:50:00",308154,0.449,331.9,16.03,68.41,593.3848,0,873.1029,0,2.468,3.065,216,12.83,14.06,95.43743,0.16,50.06,57.1,33.31,35.01
"2017-10-01 13:00:00",308155,0.283,307,16.28,68.19,454.1194,0,873.1808,0,-0.635,3.097,219,12.9,14.06,68.94997,0.152,50.06,57.1,33.31,35.01
"2017-10-01 13:10:00",308156,0.24,340.5,16.28,67.88,456.5672,0,873.1766,0,1.565,3.074,210,12.9,14.06,68.74162,0.15,50.06,57.1,33.31,35.01
"2017-10-01 13:20:00",308157,0.375,347.6,16.24,68.73,347.9711,0,872.9955,0,1.478,3.076,214,12.91,14.06,50.08827,0.144,50.06,57.1,33.31,35.01
"2017-10-01 13:30:00",308158,0.197,303.5,16.06,69.98,325.14,0,873.0166,0,0.782,3.083,207,13,14.04,46.84552,0.144,50.06,57.1,33.31,35.01
"2017-10-01 13:40:00",308159,0.302,319.4,15.77,72.01,336.6164,0,872.985,0,1.36,3.079,216,13.01,14,46.56519,0.138,50.06,57.1,33.31,35.01
"2017-10-01 13:50:00",308160,0.31,348.6,15.96,70.85,366.1739,0,872.8734,0,1.732,3.074,221,13.09,13.99,47.00463,0.129,50.06,57.1,33.31,35.01
"2017-10-01 14:00:00",308161,0.275,327.4,16.19,71.03,306.4303,0,872.8629,0,0.964,3.081,309,13.1,14,47.12207,0.154,50.06,57.04,33.31,34.99
"2017-10-01 14:10:00",308162,0.377,321.4,16.26,70.98,226.6649,0,872.8734,0,1.589,3.074,202,13.17,14.05,35.22695,0.154,50.01,57.1,33.3,35.01
"2017-10-01 14:20:00",308163,0.18,292.6,16.31,70.9,201.9832,0,872.8671,0,0.188,3.089,224,13.24,14.03,28.67707,0.142,50.06,57.04,33.31,34.99
"2017-10-01 14:30:00",308164,0.142,12.22,15.98,72.16,185.2695,0,872.8734,0,0.291,3.088,204,13.27,13.99,25.88134,0.14,50.06,57.04,33.31,34.99
"2017-10-01 14:40:00",308165,0.15,324.7,16,72.56,247.1465,0,872.8734,0,-0.018,3.091,268,13.28,13.99,36.86348,0.149,50.06,57.04,33.31,34.99
"2017-10-01 14:50:00",308166,0.399,64.65,16.13,71.45,206.309,0,872.707,0,0.449,3.086,226,13.35,13.98,29.85522,0.143,50.01,57.04,33.3,34.99
"2017-10-01 15:00:00",308167,0.135,98.9,16.06,73.03,140.2712,0,872.7786,0,0.806,3.083,202,13.35,14.02,19.55117,0.139,50.01,57.1,33.3,35.01
"2017-10-01 15:10:00",308168,0.252,317.3,15.61,75.99,126.7439,0,872.8734,0,0.53,3.088,210,13.44,14.05,17.99041,0.141,50.01,57.04,33.3,34.99
"2017-10-01 15:20:00",308169,0.13,335.3,15.52,75.86,93.13961,0,872.8691,0,0.42,3.09,204,13.5,14.05,11.97466,0.128,50.01,57.04,33.3,34.99
"2017-10-01 15:30:00",308170,0.144,20.76,15.2,76.93,85.76891,0,873.0861,0,0.351,3.093,203,13.53,14.05,11.12231,0.129,50.01,57.04,33.3,34.99
"2017-10-01 15:40:00",308171,0.19,19.92,14.91,78.86,88.06746,0,873.0924,0,0.296,3.094,205,13.56,14.04,12.12242,0.135,50.01,57.04,33.3,34.99
"2017-10-01 15:50:00",308172,0.226,330.5,14.8,79.68,153.1817,0,872.8881,0,0.244,3.094,202,13.68,14.06,23.27939,0.152,49.95,57.04,33.28,34.99
"2017-10-01 16:00:00",308173,0.194,266.7,14.93,78.87,89.43735,0,872.7491,0,0.394,3.093,202,13.63,14.06,11.74394,0.126,50.01,57.04,33.3,34.99
"2017-10-01 16:10:00",308174,0.203,23.89,14.7,80.1,52.75648,0,872.9092,0,0.606,3.093,205,13.7,14.07,6.205455,0.117,50.01,57.04,33.3,34.99
"2017-10-01 16:20:00",308175,0.129,352.5,14.38,82,52.99468,0,873.1766,0,0.304,3.097,203,13.71,14.08,6.8498,0.129,49.95,57.04,33.28,34.99
"2017-10-01 16:30:00",308176,0.284,15.23,14.3,82,40.69856,0,873.3114,0,0.445,3.096,203,13.75,14.1,5.289241,0.13,49.9,57.04,33.27,34.99
"2017-10-01 16:40:00",308177,0.139,62.74,14.25,83.5,51.33517,0,873.248,0,0.541,3.095,204,13.82,14.12,7.475879,0.144,49.95,57.04,33.28,34.99
"2017-10-01 16:50:00",308178,0.254,113.9,14.28,82.7,73.19834,0,873.1303,0,0.436,3.096,205,13.9,14.12,11.35236,0.155,49.95,57.04,33.28,34.99
"2017-10-01 17:00:00",308179,0.345,58.78,14.17,80.7,41.21422,0,873.2078,0,0.58,3.095,211,13.92,14.13,5.945404,0.144,49.95,57.04,33.28,34.99
"2017-10-01 17:10:00",308180,0.333,78.44,13.97,81,13.05997,0,873.3989,0,0.743,3.095,204,13.92,14.15,1.212617,0.083,49.9,57.04,33.27,34.99
"2017-10-01 17:20:00",308181,0.171,79.11,13.68,82.2,4.979624,0,873.4063,0,0.934,3.095,204,13.91,14.19,0.1023167,0.017,49.9,57.04,33.27,34.99
"2017-10-01 17:30:00",308182,0.181,99.8,13.5,83.2,2.931984,0,873.4367,0,0.831,3.096,204,13.96,14.19,0.08336975,0.025,49.9,57.04,33.27,34.99
"2017-10-01 17:40:00",308183,0.072,88.1,13.44,82.9,0.1886534,0,873.4381,0,0.801,3.097,222,13.97,14.19,0,0,49.9,57.04,33.27,34.99
"2017-10-01 17:50:00",308184,0.133,79.21,13.22,83.5,0,0,873.4608,0,0.787,3.099,205,13.97,14.19,0,0,49.9,57.04,33.27,34.99
"2017-10-01 18:00:00",308185,0.068,101.8,13.02,83.7,0,0,873.5048,0,0.992,3.097,220,13.97,14.19,0,0,49.9,56.98,33.27,34.98
"2017-10-01 18:10:00",308186,0.354,83.6,13.04,82.7,0,0,873.5638,0,1.323,3.094,275,13.99,14.19,0.003789541,0,49.9,56.98,33.27,34.98
"2017-10-01 18:20:00",308187,0.264,131.5,12.74,84.9,0,0,873.47
"2017-10-01 18:20:00",308187,0.264,131.5,12.74,84.9,0,0,873.4722,0,1.227,3.098,235,14.02,14.19,0,0,49.84,56.98,33.26,34.98
"2017-10-01 18:30:00",308188,0.246,151.7,12.35,87.1,0,0,873.4704,0,1.065,3.101,219,14.03,14.18,0,0,49.84,56.98,33.26,34.98
"2017-10-01 18:40:00",308189,0.344,192.7,12.01,88.2,0,0,873.4746,0,1.521,3.097,292,14,14.19,0,0,49.9,56.98,33.27,34.98
"2017-10-01 18:50:00",308190,0.096,107,12.01,87.4,0,0,873.5609,0,0.873,3.105,219,13.98,14.19,0,0,49.84,56.98,33.26,34.98
"2017-10-01 19:00:00",308191,0.114,163.3,11.68,89.1,0,0,873.5167,0,0.927,3.104,231,13.98,14.21,0,0,49.84,56.98,33.26,34.98
"2017-10-01 19:10:00",308192,0.185,323.7,12.22,86.3,0,0,874.0096,0,0.757,3.104,231,13.97,14.22,0.7313814,0,49.84,56.98,33.26,34.98
"2017-10-01 19:20:00",308193,0.036,74.95,12.05,87.6,0,0,873.919,0,0.596,3.107,208,13.98,14.25,0.1023176,0,49.84,56.98,33.26,34.98
"2017-10-01 19:30:00",308194,0.214,169.5,11.82,88.9,0,0,873.8264,0,0.542,3.108,218,13.98,14.28,0.01515816,0,49.79,56.98,33.24,34.98
"2017-10-01 19:40:00",308195,0.41,125.8,11.91,89.1,0,0,873.761,0,0.698,3.106,213,13.99,14.31,0.1970561,0,49.84,56.98,33.26,34.98
"2017-10-01 19:50:00",308196,0.277,110.2,11.93,89.1,0,0,873.7947,0,0.956,3.103,227,14.01,14.32,0.08715944,0,49.84,56.98,33.26,34.98
"2017-10-01 20:00:00",308197,0.279,132.9,11.96,88.1,0,0,873.959,0,1.096,3.104,216,14.02,14.31,0.1250549,0,49.84,56.98,33.26,34.98
"2017-10-01 20:10:00",308198,0.183,146.9,11.42,90.7,0,0,873.8516,0,0.585,3.109,222,14.02,14.29,0,0,49.84,56.93,33.26,34.97
"2017-10-01 20:20:00",308199,0.123,105.7,11.8,88.7,0,0,873.6536,0,0.602,3.106,221,14.02,14.29,0.3789541,0,49.84,56.93,33.26,34.97
"2017-10-01 20:30:00",308200,0.152,175.9,11.56,88,0,0,873.4725,0,0.671,3.111,227,13.99,14.28,0.1440025,0,49.79,56.93,33.24,34.97
"2017-10-01 20:40:00",308201,0.125,181.3,10.95,91.1,0,0,873.4704,0,0.462,3.114,232,13.97,14.28,0,0,49.79,56.93,33.24,34.97
"2017-10-01 20:50:00",308202,0.186,191.7,11.07,91.9,0,0,873.5673,0,0.4,3.112,206,13.97,14.28,0.2463202,0,49.79,56.93,33.24,34.97
"2017-10-01 21:00:00",308203,0.077,55.82,11.55,88.8,0,0,873.5441,0,0.244,3.114,217,13.93,14.28,0.74275,0,49.84,56.93,33.26,34.97
"2017-10-01 21:10:00",308204,0.076,147.3,10.96,90.1,0,0,873.264,0,0.472,3.112,209,13.91,14.28,0.07958036,0,49.84,56.93,33.26,34.97
"2017-10-01 21:20:00",308205,0.324,3.417,11.7,87.2,0,0,873.2197,0,0.241,3.11,212,13.93,14.28,1.117915,0,49.79,56.93,33.24,34.97
"2017-10-01 21:30:00",308206,0.159,130,11.46,87.9,0,0,873.1924,0,0.04,3.116,213,13.93,14.32,0.2122143,0,49.79,56.93,33.24,34.97
"2017-10-01 21:40:00",308207,0.038,122,11.61,87.1,0,0,872.967,0,0.524,3.107,220,13.95,14.36,0.4585344,0,49.79,56.93,33.24,34.97
"2017-10-01 21:50:00",308208,0.021,108.5,12.12,80.7,0,0,872.7332,0,0.602,3.106,214,13.95,14.39,0.7654873,0,49.79,56.98,33.24,34.98
"2017-10-01 22:00:00",308209,0.139,187.3,11.64,84.1,0,0,872.8933,0,0.735,3.108,218,13.88,14.4,0.1326339,0,49.79,56.93,33.24,34.97
"2017-10-01 22:10:00",308210,0.195,170.8,11.2,87.2,0,0,872.9375,0,1.069,3.109,231,13.83,14.41,0,0,49.79,56.93,33.24,34.97
"2017-10-01 22:20:00",308211,0.114,134.8,10.78,89.5,0,0,872.8428,0,0.91,3.107,206,13.84,14.4,0.1288444,0,49.79,56.93,33.24,34.97
"2017-10-01 22:30:00",308212,0.214,12.65,11.53,85.4,0,0,872.986,0,0.585,3.109,208,13.84,14.41,0.7086442,0,49.79,56.87,33.24,34.95
"2017-10-01 22:40:00",308213,0.151,168.9,11.05,87.4,0,0,873.0428,0,1.326,3.106,224,13.84,14.41,0.04926403,0,49.79,56.87,33.24,34.95
"2017-10-01 22:50:00",308214,0.201,178.9,11.02,88,0,0,873.2071,0,0.913,3.111,212,13.84,14.41,0.1743189,0,49.79,56.93,33.24,34.97
"2017-10-01 23:00:00",308215,0.357,214.8,10.65,89.7,0,0,873.3588,0,0.744,3.111,218,13.85,14.4,0.1023176,0,49.79,56.87,33.24,34.95
"2017-10-01 23:10:00",308216,0.512,159.4,10.68,90.3,0,0,873.2324,0,1.093,3.109,211,13.87,14.39,0.05684311,0,49.73,56.87,33.23,34.95
"2017-10-01 23:20:00",308217,0.062,156.2,10.85,90.1,0,0,873.0807,0,0.821,3.11,213,13.86,14.39,0.1326339,0,49.73,56.87,33.23,34.95
"2017-10-01 23:30:00",308218,0.264,172.1,10.74,90,0,0,872.5795,0,0.938,3.111,207,13.82,14.38,0.1288444,0,49.79,56.93,33.24,34.97
"2017-10-01 23:40:00",308219,0.182,194.9,10.91,91.7,0,0,872.4426,0,0.837,3.107,209,13.82,14.36,0.4926403,0,49.79,56.87,33.24,34.95
"2017-10-01 23:50:00",308220,0.11,155.1,11.4,88.7,0,0,872.3036,0,1.114,3.105,229,13.82,14.36,0.5343253,0,49.73,56.93,33.23,34.97
